Temp
63 63 63 63 63 63 63 63 63 63 63 63 62 62 62 62 62 62 62 62 63 64 63 63 64 63 58 50 50 64 68 66 64 61 55 53 50 47 41 42 46 43 48 56 57 58 58
63 63 63 63 63 63 63 63 62 63 63 62 62 61 61 61 61 61 61 62 63 63 63 63 64 62 53 44 61 62 61 63 61 58 55 55 51 52 45 44 43 46 49 53 56 57 58
62 63 63 63 63 63 62 62 62 62 61 62 61 61 60 60 60 61 61 62 62 62 62 63 64 59 50 50 60 60 62 60 60 59 55 56 55 52 49 45 49 48 44 48 52 55 56
62 62 62 62 62 62 62 62 61 61 61 61 60 60 60 60 60 60 60 61 61 61 62 63 64 53 47 62 60 62 61 60 61 60 58 59 57 52 48 49 48 42 42 37 49 53 55
62 62 62 61 62 62 62 61 61 61 61 60 60 60 60 59 59 60 60 60 61 61 62 63 53 49 47 65 58 60 57 57 58 59 58 63 55 47 48 40 37 38 31 33 43 52 52
62 62 61 61 61 61 61 61 61 61 60 60 59 59 59 59 59 59 60 60 60 60 60 60 58 46 55 52 57 60 59 59 55 54 53 51 45 40 40 37 29 31 32 33 36 46 49
61 61 61 61 61 61 61 61 61 60 60 59 59 59 59 59 59 60 55 53 50 50 52 47 49 49 53 59 58 57 59 56 53 49 41 45 37 32 36 38 39 37 34 33 40 47 45
61 61 61 61 60 60 60 60 60 59 60 59 58 58 59 59 60 60 52 48 47 49 44 51 52 52 56 56 50 55 59 49 47 39 44 40 34 41 44 42 40 38 34 35 42 46 44
60 60 60 60 60 60 59 60 59 60 59 58 58 58 59 59 59 55 50 48 54 51 42 49 53 52 54 55 49 51 54 49 43 41 40 35 42 47 44 41 40 36 33 35 37 42 41
60 60 60 59 59 59 59 59 59 59 58 58 58 59 59 59 54 50 48 53 53 52 35 44 49 52 54 52 47 56 54 49 45 40 41 39 45 44 41 40 39 34 41 40 40 36 31
60 59 59 59 59 58 58 58 59 58 58 57 58 59 59 57 49 48 51 52 51 50 22 47 49 59 55 48 49 49 54 49 40 41 40 38 40 40 39 40 41 39 42 39 38 33 30
59 59 59 58 58 58 58 58 58 58 57 57 57 58 58 53 50 49 51 50 50 34 22 40 47 46 46 47 47 51 48 51 47 41 40 40 44 41 40 43 42 44 39 37 33 32 23
58 58 58 58 58 58 58 58 58 58 57 56 57 57 55 54 48 51 50 47 32 27 42 41 40 44 41 41 44 45 43 40 36 31 31 37 38 41 43 38 42 41 33 24 24 21 24
58 58 58 58 58 58 58 58 58 57 57 56 56 56 54 53 50 50 48 41 31 37 36 43 42 42 38 42 41 42 39 36 38 36 30 28 28 38 41 37 36 35 33 25 22 20 24
58 58 57 58 58 57 57 57 57 57 56 56 55 48 49 50 52 49 44 29 35 38 41 40 41 37 37 41 39 40 34 36 37 38 31 30 31 40 41 41 39 34 31 34 29 22 23
58 57 57 57 57 57 57 57 57 57 56 55 47 47 48 50 49 47 40 39 37 43 43 41 34 36 32 38 38 37 35 40 39 40 38 34 29 36 40 40 39 35 38 30 27 24 22
57 57 57 57 57 56 56 57 57 57 56 56 47 46 49 50 48 44 37 36 41 46 46 41 37 35 35 35 36 35 39 43 42 40 39 35 33 34 36 34 34 34 32 32 31 29 25
57 57 57 57 56 56 56 56 57 57 56 51 44 43 49 48 43 34 38 40 47 43 44 43 40 40 36 36 35 35 37 41 45 43 37 37 34 28 34 35 37 34 33 33 28 27 26
58 57 57 57 56 56 56 56 56 56 55 44 42 42 48 48 39 37 38 42 43 42 42 42 40 42 40 37 34 37 39 44 44 43 38 39 33 26 32 33 34 32 34 34 32 30 27
57 57 57 57 56 56 56 55 56 56 56 45 42 39 43 42 39 39 37 41 39 42 43 44 41 40 38 36 39 36 37 43 43 42 48 44 34 34 29 36 35 32 34 34 33 23 26
57 57 57 57 57 57 56 55 55 55 55 46 39 40 39 38 42 38 39 39 38 39 41 42 38 40 38 33 35 35 39 41 42 45 40 40 31 31 34 35 36 35 35 33 28 32 30
58 58 58 58 58 58 57 56 55 55 53 43 39 39 39 38 39 37 40 39 41 41 42 39 38 40 38 36 41 38 39 36 39 37 36 36 32 31 31 35 33 32 34 33 33 33 30
58 58 58 58 58 57 57 57 55 55 51 41 40 40 40 40 37 37 39 41 42 42 46 45 42 39 36 40 42 42 43 42 41 39 35 34 30 30 27 31 31 29 35 33 34 33 34
58 58 58 58 57 57 57 56 56 54 51 42 41 39 36 35 36 38 41 41 43 42 41 43 43 40 43 42 40 38 35 38 36 37 38 32 30 30 26 28 22 37 38 40 38 39 38
57 57 57 57 57 57 57 56 57 56 52 45 41 39 34 31 35 38 40 39 40 41 40 43 45 45 44 39 35 33 33 32 32 33 34 35 32 28 26 23 32 38 35 35 33 36 40
57 57 57 57 56 56 56 56 56 56 55 46 43 42 37 32 34 37 37 38 36 36 36 40 40 42 40 37 34 28 28 30 29 27 33 33 32 29 24 23 24 38 37 38 37 30 39
57 57 56 56 56 55 55 55 55 55 55 49 47 44 38 32 35 36 35 36 40 37 34 36 37 35 39 33 30 27 27 31 27 27 24 27 26 25 25 23 28 40 39 39 27 34 40
53 52 52 52 52 52 52 52 52 53 52 50 47 47 46 39 39 40 40 37 39 39 37 37 37 36 34 31 31 30 25 29 26 30 28 29 26 24 24 22 22 41 39 36 41 36 40
50 50 50 51 51 51 51 51 51 51 51 50 45 49 49 42 43 47 48 51 49 49 41 38 37 37 38 33 30 29 28 25 27 25 30 29 38 34 33 32 43 42 45 44 40 41 40
MSLP
1022.76 1022.59 1022.33 1022.13 1021.91 1021.71 1021.52 1021.32 1021.08 1020.88 1020.68 1020.62 1020.39 1020.21 1020.04 1019.86 1019.65 1019.35 1019.02 1018.66 1018.34 1018.04 1017.77 1017.47 1016.98 1016.39 1016.11 1016.16 1015.72 1014.74 1014.50 1014.21 1014.00 1014.05 1014.09 1014.09 1014.14 1014.29 1014.50 1014.32 1013.99 1013.58 1012.92 1012.20 1011.78 1011.10 1010.83
1022.85 1022.72 1022.44 1022.17 1022.04 1021.74 1021.60 1021.37 1021.09 1020.86 1020.63 1020.52 1020.36 1020.15 1019.94 1019.75 1019.48 1019.25 1018.92 1018.55 1018.22 1017.99 1017.70 1017.42 1017.00 1016.51 1016.52 1016.20 1015.23 1014.98 1014.76 1014.33 1014.26 1014.25 1014.27 1014.21 1014.37 1014.38 1014.40 1014.27 1014.17 1013.69 1013.05 1012.46 1011.76 1011.37 1011.10
1022.85 1022.76 1022.57 1022.32 1022.12 1021.83 1021.59 1021.38 1021.16 1020.93 1020.67 1020.49 1020.36 1020.13 1019.91 1019.57 1019.32 1019.02 1018.80 1018.45 1018.07 1017.88 1017.71 1017.41 1017.13 1016.89 1016.80 1015.96 1015.19 1015.00 1014.73 1014.52 1014.32 1014.37 1014.39 1014.29 1014.33 1014.42 1014.45 1014.36 1014.16 1013.69 1013.29 1012.59 1012.03 1011.58 1011.33
1022.89 1022.76 1022.62 1022.44 1022.20 1021.99 1021.70 1021.42 1021.21 1021.01 1020.69 1020.50 1020.34 1020.16 1019.96 1019.61 1019.14 1018.80 1018.60 1018.35 1017.98 1017.70 1017.60 1017.33 1017.17 1017.06 1016.46 1015.23 1015.04 1015.01 1014.75 1014.56 1014.29 1014.25 1014.38 1014.23 1014.23 1014.44 1014.51 1014.49 1014.26 1014.03 1013.70 1013.26 1012.31 1011.86 1011.51
1023.03 1022.83 1022.62 1022.52 1022.26 1022.03 1021.78 1021.53 1021.19 1021.03 1020.71 1020.57 1020.29 1019.96 1019.87 1019.67 1019.19 1018.75 1018.35 1018.10 1017.79 1017.49 1017.29 1017.16 1017.31 1017.18 1016.35 1015.10 1015.13 1015.10 1015.10 1014.95 1014.54 1014.27 1014.15 1014.19 1014.29 1014.85 1014.78 1014.95 1015.07 1014.71 1014.49 1013.79 1012.86 1012.13 1011.88
1023.02 1022.86 1022.81 1022.62 1022.40 1022.08 1021.82 1021.60 1021.27 1021.03 1020.90 1020.67 1020.41 1020.08 1019.82 1019.57 1019.21 1018.77 1018.22 1017.81 1017.55 1017.39 1017.23 1017.16 1017.39 1017.67 1016.22 1015.99 1015.60 1015.24 1014.99 1014.97 1014.96 1014.77 1014.67 1014.74 1015.20 1015.46 1015.61 1015.68 1015.75 1015.37 1014.73 1014.02 1013.25 1012.52 1012.14
1022.97 1022.88 1022.84 1022.71 1022.52 1022.22 1021.92 1021.64 1021.32 1021.08 1020.89 1020.74 1020.37 1020.04 1019.75 1019.60 1019.28 1018.75 1018.25 1017.86 1018.39 1018.20 1017.84 1018.05 1017.95 1017.62 1016.78 1016.14 1015.70 1015.38 1015.11 1015.07 1015.27 1015.41 1015.81 1015.75 1016.23 1016.27 1016.03 1015.81 1015.66 1015.45 1014.96 1014.41 1013.62 1012.86 1012.64
1023.08 1022.85 1022.76 1022.66 1022.56 1022.30 1022.12 1021.70 1021.38 1021.10 1020.84 1020.70 1020.44 1020.09 1019.73 1019.45 1019.24 1018.77 1018.77 1019.46 1019.97 1020.10 1019.03 1017.94 1017.78 1017.42 1016.84 1016.51 1016.18 1015.60 1015.41 1015.68 1015.93 1016.38 1016.26 1016.44 1016.53 1016.18 1015.86 1015.72 1015.62 1015.43 1015.15 1014.73 1014.01 1013.46 1013.26
1023.13 1022.90 1022.60 1022.70 1022.49 1022.42 1022.18 1021.84 1021.44 1021.08 1020.78 1020.63 1020.37 1020.07 1019.84 1019.60 1019.25 1019.19 1019.76 1020.06 1019.94 1020.01 1019.81 1018.24 1017.41 1016.98 1016.63 1016.63 1016.49 1015.98 1015.83 1016.14 1016.40 1016.68 1016.87 1016.89 1016.51 1015.89 1015.71 1015.59 1015.52 1015.38 1015.25 1015.04 1014.83 1014.29 1014.01
1023.08 1022.99 1022.63 1022.61 1022.53 1022.42 1022.25 1021.99 1021.50 1021.10 1020.73 1020.57 1020.34 1020.10 1019.76 1019.36 1019.69 1020.12 1020.21 1020.12 1019.99 1020.03 1020.18 1018.81 1017.40 1016.64 1016.39 1016.35 1016.52 1016.03 1015.88 1016.36 1016.61 1016.94 1016.95 1016.90 1016.33 1016.04 1015.75 1015.62 1015.58 1015.53 1015.47 1015.44 1015.36 1015.35 1015.45
1023.03 1023.07 1022.73 1022.45 1022.63 1022.36 1022.20 1022.07 1021.63 1021.19 1020.87 1020.55 1020.39 1020.26 1019.82 1019.49 1020.10 1020.47 1020.65 1020.24 1019.95 1020.09 1020.28 1018.74 1017.36 1016.28 1016.47 1016.83 1016.78 1016.11 1016.12 1016.14 1016.64 1017.09 1017.49 1017.05 1016.60 1016.33 1016.04 1015.87 1015.73 1015.71 1015.68 1015.94 1016.06 1016.31 1016.33
1023.11 1023.04 1022.93 1022.52 1022.46 1022.34 1022.07 1022.10 1021.77 1021.39 1020.99 1020.62 1020.49 1020.29 1020.10 1020.05 1020.42 1020.43 1020.36 1020.22 1020.39 1020.63 1020.40 1019.06 1017.88 1017.39 1017.36 1017.05 1016.90 1016.50 1016.37 1016.48 1016.71 1017.08 1017.34 1017.15 1016.58 1016.45 1016.20 1015.96 1015.89 1015.92 1016.13 1016.57 1017.16 1017.50 1017.56
1023.07 1023.00 1022.89 1022.71 1022.50 1022.32 1022.13 1021.91 1021.82 1021.43 1021.13 1020.72 1020.42 1020.26 1020.14 1020.39 1020.70 1020.47 1020.36 1020.66 1021.24 1020.98 1020.89 1019.78 1019.03 1018.45 1018.31 1017.92 1017.34 1017.12 1017.15 1017.25 1017.84 1017.95 1018.08 1017.51 1016.82 1016.39 1016.21 1016.11 1016.02 1016.35 1017.10 1017.90 1018.45 1018.75 1018.18
1022.89 1023.01 1022.85 1022.76 1022.48 1022.39 1022.16 1021.93 1021.71 1021.44 1021.15 1020.83 1020.42 1020.28 1020.34 1020.32 1020.48 1020.64 1020.88 1020.97 1021.22 1021.21 1020.68 1020.04 1019.58 1019.07 1018.85 1018.28 1017.89 1017.67 1017.72 1017.99 1018.02 1018.42 1018.95 1018.80 1017.47 1016.72 1016.52 1016.49 1016.52 1016.93 1017.64 1018.42 1018.82 1019.21 1018.54
1022.74 1022.89 1022.85 1022.75 1022.52 1022.42 1022.25 1021.90 1021.79 1021.32 1021.00 1020.58 1020.43 1020.54 1020.64 1020.54 1020.43 1020.75 1021.12 1021.49 1021.18 1020.79 1020.46 1020.42 1019.92 1019.62 1019.22 1018.86 1018.81 1018.31 1018.13 1018.16 1018.22 1018.36 1018.85 1018.84 1017.98 1016.99 1016.85 1016.75 1017.12 1017.20 1017.58 1018.03 1018.72 1019.25 1018.93
1022.63 1022.71 1022.82 1022.73 1022.60 1022.46 1022.30 1021.94 1021.76 1021.41 1020.90 1020.63 1020.82 1020.76 1020.90 1020.72 1020.51 1020.79 1021.39 1021.33 1020.74 1020.30 1020.20 1020.32 1020.35 1020.05 1019.94 1019.27 1019.09 1018.79 1018.41 1018.08 1018.15 1018.33 1018.57 1018.80 1018.66 1017.58 1017.18 1017.09 1017.20 1017.38 1017.68 1018.08 1018.80 1019.18 1018.70
1022.45 1022.63 1022.68 1022.76 1022.68 1022.53 1022.32 1022.08 1021.73 1021.50 1021.01 1020.72 1021.09 1021.17 1020.96 1020.74 1020.70 1020.87 1021.40 1020.95 1020.33 1019.98 1020.07 1020.42 1020.37 1020.30 1020.12 1019.82 1019.32 1018.98 1018.62 1018.11 1018.20 1018.28 1018.50 1018.90 1019.18 1018.17 1017.80 1017.52 1017.43 1017.75 1017.73 1018.33 1018.63 1018.93 1018.52
1022.49 1022.57 1022.64 1022.69 1022.74 1022.60 1022.39 1022.21 1021.77 1021.55 1021.01 1020.74 1021.48 1021.71 1021.02 1020.94 1021.22 1021.35 1021.08 1020.21 1019.80 1019.86 1020.05 1020.20 1020.31 1020.25 1020.02 1019.88 1019.56 1019.03 1018.56 1018.18 1018.13 1018.35 1018.68 1018.95 1019.36 1019.05 1017.76 1017.49 1017.41 1017.56 1017.73 1018.12 1018.90 1018.81 1018.48
1022.37 1022.52 1022.68 1022.52 1022.75 1022.65 1022.44 1022.20 1021.97 1021.74 1021.62 1021.98 1021.97 1021.68 1021.13 1020.95 1021.23 1021.10 1020.50 1020.07 1019.72 1019.82 1019.96 1020.27 1020.23 1020.16 1019.90 1019.77 1019.66 1018.95 1018.45 1017.89 1018.08 1018.46 1018.72 1019.04 1019.39 1019.29 1018.11 1018.00 1017.62 1017.63 1017.65 1017.90 1018.35 1018.46 1018.04
1022.20 1022.41 1022.56 1022.51 1022.74 1022.70 1022.49 1022.23 1022.03 1021.89 1021.73 1022.05 1022.49 1022.21 1021.54 1021.50 1021.42 1020.83 1020.42 1019.85 1019.58 1019.43 1019.53 1019.70 1019.99 1019.99 1020.16 1019.83 1019.43 1019.01 1018.56 1017.99 1018.19 1018.46 1018.73 1019.11 1019.60 1019.50 1019.15 1018.16 1017.73 1017.70 1017.42 1017.66 1018.16 1018.48 1017.45
1021.93 1022.18 1022.43 1022.27 1022.61 1022.55 1022.45 1022.38 1022.08 1021.97 1021.80 1022.14 1022.76 1022.57 1022.36 1021.85 1021.31 1020.83 1020.30 1019.93 1019.61 1019.51 1019.56 1019.57 1019.76 1019.75 1019.82 1019.85 1019.44 1019.16 1018.55 1018.34 1018.41 1018.62 1019.05 1019.42 1019.86 1019.59 1018.72 1017.94 1017.75 1017.20 1016.93 1017.24 1017.56 1017.13 1017.08
1021.61 1021.94 1022.11 1022.10 1022.32 1022.40 1022.41 1022.37 1022.13 1022.05 1021.80 1022.26 1022.99 1022.92 1022.76 1022.09 1021.35 1020.93 1020.37 1019.72 1019.29 1018.87 1019.13 1019.26 1019.54 1019.03 1019.35 1019.49 1018.65 1018.50 1018.51 1018.59 1018.67 1019.16 1019.49 1019.86 1019.77 1019.69 1018.87 1017.58 1017.18 1016.65 1015.92 1015.90 1016.23 1016.40 1016.02
1021.50 1021.56 1021.75 1021.91 1022.04 1022.11 1022.55 1021.97 1022.25 1022.10 1021.86 1022.56 1023.07 1022.95 1022.74 1022.25 1021.82 1021.50 1020.34 1019.35 1018.86 1018.84 1018.05 1018.19 1018.44 1018.90 1019.12 1018.44 1018.25 1018.05 1017.99 1018.18 1018.30 1018.91 1019.60 1020.09 1020.14 1020.03 1019.00 1017.74 1016.96 1015.60 1014.03 1014.52 1014.72 1014.61 1014.41
1021.16 1021.29 1021.50 1021.75 1021.64 1022.07 1022.24 1021.90 1022.09 1022.15 1022.30 1023.06 1023.41 1023.42 1023.38 1022.88 1022.32 1021.37 1020.29 1019.94 1019.30 1018.90 1018.72 1018.19 1018.57 1018.54 1017.78 1017.73 1017.87 1018.20 1018.31 1018.29 1018.54 1018.65 1019.09 1019.63 1020.26 1020.15 1019.21 1018.18 1016.51 1013.61 1013.03 1013.08 1013.44 1013.33 1013.41
1020.94 1020.84 1021.26 1021.36 1021.56 1021.89 1021.74 1021.83 1021.86 1021.94 1022.34 1022.81 1023.32 1023.62 1023.66 1023.10 1022.17 1021.17 1020.56 1019.98 1019.32 1018.89 1018.78 1018.32 1017.97 1017.78 1017.58 1018.05 1018.69 1018.70 1018.59 1018.52 1018.41 1018.75 1019.13 1019.50 1019.94 1020.06 1019.51 1018.41 1015.52 1013.09 1012.76 1012.72 1012.96 1012.58 1012.46
1020.46 1020.70 1020.83 1021.49 1021.50 1021.52 1021.58 1021.69 1021.82 1021.85 1021.95 1022.45 1022.93 1023.22 1023.69 1023.78 1021.96 1021.07 1020.61 1019.92 1019.66 1019.14 1019.03 1018.23 1018.03 1018.08 1018.22 1018.76 1019.37 1019.57 1019.37 1018.63 1018.59 1018.95 1019.23 1019.54 1019.72 1019.99 1019.67 1018.38 1015.93 1012.94 1012.33 1012.27 1012.51 1012.38 1011.90
1020.34 1020.60 1020.86 1021.11 1021.11 1021.34 1021.42 1021.50 1021.58 1021.70 1021.71 1022.19 1022.27 1022.47 1023.14 1023.40 1021.73 1021.15 1020.66 1020.02 1019.31 1019.18 1019.16 1018.70 1018.70 1018.86 1018.66 1019.36 1019.75 1019.62 1019.09 1018.44 1018.32 1018.29 1018.89 1019.45 1019.60 1019.25 1018.55 1017.34 1014.87 1012.37 1012.21 1012.26 1012.54 1012.02 1011.50
1020.50 1020.86 1021.10 1021.32 1021.47 1021.67 1021.74 1021.73 1021.77 1021.76 1021.80 1021.84 1021.50 1021.66 1021.98 1021.61 1020.41 1020.14 1019.89 1019.75 1019.00 1018.91 1019.11 1019.13 1019.23 1018.98 1019.25 1019.61 1019.56 1019.00 1018.74 1017.64 1017.33 1016.56 1016.75 1017.07 1017.67 1017.60 1017.23 1016.26 1013.80 1011.38 1012.24 1012.11 1010.83 1010.84 1010.81
1021.11 1021.27 1021.55 1021.73 1021.89 1021.84 1021.88 1022.03 1022.10 1022.12 1022.04 1021.87 1021.56 1021.30 1021.37 1021.19 1018.98 1018.26 1018.02 1017.79 1018.03 1018.11 1018.75 1018.99 1018.68 1018.41 1017.99 1018.38 1018.64 1018.39 1017.92 1017.43 1016.66 1015.98 1015.39 1015.12 1013.88 1013.93 1013.91 1012.03 1010.70 1010.61 1009.93 1009.85 1010.21 1010.50 1010.79
Wind_Speed
6 7 7 8 9 10 11 10 10 9 8 8 6 7 9 9 11 11 12 12 12 12 12 14 14 17 3 4 4 6 15 9 3 3 3 2 3 1 2 3 4 2 2 3 5 5 0
7 7 7 8 10 11 11 11 9 9 8 8 7 6 8 9 10 11 12 12 12 12 11 13 13 10 3 4 4 7 8 5 4 3 5 4 2 2 1 2 1 3 4 6 3 4 2
5 7 9 9 11 10 10 11 10 9 8 8 8 7 8 8 9 10 12 13 12 11 12 11 11 3 2 4 4 8 6 4 3 2 4 3 3 3 3 4 4 3 3 3 2 1 1
5 7 9 10 10 11 12 11 10 9 8 8 8 8 9 10 9 10 12 14 14 11 11 8 9 2 3 4 5 5 6 4 3 2 2 4 2 2 0 4 5 2 5 3 4 3 2
6 7 8 9 10 11 12 12 11 11 9 8 9 8 10 11 11 11 12 15 15 11 8 6 2 2 5 7 5 5 2 4 6 3 3 2 2 2 4 3 4 6 1 1 5 3 2
6 7 9 10 11 11 12 13 13 12 11 11 10 11 10 10 10 12 14 13 7 4 2 1 0 3 6 6 5 6 4 4 3 6 5 6 5 3 4 5 3 1 1 1 3 1 2
5 7 8 10 11 12 12 12 13 12 12 11 11 11 10 10 10 10 8 4 7 5 8 1 5 3 6 8 2 5 4 6 4 5 4 4 7 2 4 1 2 2 1 1 3 3 2
5 6 8 9 11 12 12 12 13 12 12 11 12 11 10 8 10 9 2 6 2 2 6 2 5 5 6 3 4 5 5 5 6 4 6 7 3 4 3 2 2 0 0 3 5 3 2
5 5 6 9 10 12 12 13 13 12 11 11 10 10 9 10 9 5 4 2 2 1 1 7 4 3 5 2 4 5 4 3 4 6 5 1 4 5 1 2 4 1 1 2 2 5 1
5 5 6 8 9 11 12 13 13 13 11 9 9 8 8 11 5 2 3 4 3 2 6 8 5 3 2 1 4 3 1 2 5 5 4 3 5 4 3 3 2 3 3 2 3 3 3
4 5 5 7 9 10 11 12 13 13 12 8 8 8 7 8 3 3 3 5 1 4 7 8 7 3 5 2 4 2 2 2 1 3 3 5 4 5 2 2 0 5 3 3 2 2 2
3 4 7 7 8 10 10 12 13 13 12 10 8 7 7 4 2 1 3 3 4 9 4 8 4 6 7 4 2 5 3 4 0 2 2 6 3 2 2 3 2 3 1 5 4 3 2
2 3 6 8 9 10 11 11 13 13 12 10 7 7 3 1 1 3 2 4 8 8 4 8 5 6 3 5 6 4 5 7 4 7 7 7 3 2 1 3 3 6 5 4 5 4 6
2 2 5 7 8 10 11 12 12 14 13 12 6 4 3 1 2 2 3 6 8 1 5 3 4 6 4 5 3 4 4 5 3 3 2 4 9 2 1 1 3 2 3 5 4 2 5
3 1 3 6 8 10 11 12 13 14 15 11 3 2 2 1 2 3 5 6 6 5 2 4 6 3 5 3 3 6 1 2 2 2 1 2 6 3 1 1 2 1 2 2 4 2 1
4 1 2 4 7 9 11 12 15 15 15 6 1 1 1 3 2 4 5 4 4 4 3 2 0 1 3 5 6 5 3 2 1 0 1 2 5 1 4 2 1 2 2 1 3 2 4
5 2 2 3 6 8 10 13 14 16 17 4 3 3 1 3 2 5 3 6 5 5 4 4 2 2 4 4 2 3 4 3 2 1 2 1 2 6 2 4 3 1 2 2 2 4 3
5 3 1 3 4 6 9 11 14 16 17 6 2 2 2 1 3 1 2 5 2 3 2 2 2 5 4 2 3 3 4 5 3 1 1 2 3 5 9 2 1 2 3 5 4 4 3
6 4 2 2 4 5 7 10 12 14 13 1 1 3 2 2 2 2 3 3 3 4 4 4 5 6 4 4 3 4 3 1 5 4 2 3 1 5 10 4 1 3 4 3 2 3 6
7 5 3 0 2 4 6 8 11 12 12 3 2 3 3 3 0 3 2 4 3 4 3 5 3 1 2 4 5 4 3 2 4 2 3 1 2 6 7 10 2 5 6 5 5 3 3
8 7 6 3 3 4 5 7 9 11 8 3 2 3 2 3 2 2 1 1 2 3 3 4 2 7 8 4 3 5 4 4 2 3 3 4 4 4 8 12 8 15 15 9 9 8 9
9 8 6 3 3 4 6 4 7 10 3 4 1 1 2 3 2 3 3 5 7 4 7 5 6 4 8 8 9 7 5 3 6 1 4 1 4 0 8 7 6 8 11 13 12 8 9
11 9 8 7 5 3 6 5 3 9 5 2 1 1 4 3 1 2 5 7 5 4 6 4 9 5 4 13 9 8 6 6 6 6 7 5 3 1 7 4 10 6 6 5 5 6 7
9 9 7 6 6 7 8 3 2 5 6 2 0 2 3 5 2 5 2 3 5 6 5 1 5 5 5 3 0 2 3 6 5 7 6 6 4 3 5 6 3 7 2 6 8 7 9
8 6 8 9 8 10 7 6 4 4 6 3 2 2 2 4 3 7 7 7 7 5 6 6 7 7 4 3 2 6 5 4 2 1 5 5 5 3 3 3 8 8 2 4 1 6 5
7 7 5 8 7 7 7 7 7 6 8 3 2 3 3 2 7 3 4 3 4 5 5 6 2 1 4 3 3 5 6 6 5 2 4 5 3 3 2 3 6 4 3 2 2 6 5
8 7 7 5 2 1 2 3 5 7 5 4 2 5 4 3 6 5 5 4 2 2 3 4 2 1 2 2 4 5 7 6 6 7 6 3 3 9 6 5 10 8 4 3 2 7 6
16 15 14 13 12 11 10 10 10 9 12 4 3 7 4 4 6 9 7 6 3 3 3 2 4 2 2 3 4 6 5 7 3 6 9 11 10 6 4 5 10 8 5 8 8 2 6
17 16 15 14 13 11 10 8 8 9 10 9 2 1 3 7 6 7 14 21 17 12 3 3 3 3 4 2 2 1 4 2 5 6 1 5 9 7 12 11 3 8 7 9 4 5 6
Wind_Direction
3 7 4 0 358 355 354 353 350 345 337 319 313 305 307 316 322 326 329 332 335 338 341 336 342 344 18 18 281 308 331 335 7 3 11 13 49 47 26 321 325 172 284 312 341 7 48
2 353 350 354 353 357 356 353 352 343 334 325 314 306 302 310 320 324 324 325 327 328 333 333 342 350 34 23 279 329 329 330 9 5 344 21 14 320 283 291 33 293 272 294 330 344 313
2 345 347 354 352 355 355 351 349 344 338 326 321 314 309 309 316 320 319 316 316 319 321 327 338 41 5 258 335 322 337 306 303 351 349 351 335 28 341 330 335 290 345 333 295 356 1
350 349 347 351 350 350 350 352 348 346 349 334 327 320 315 311 314 314 312 309 305 303 308 310 331 49 260 272 302 340 336 329 338 274 263 292 322 289 178 309 1 319 55 110 298 154 333
339 348 353 348 347 348 348 350 351 347 348 334 322 325 321 314 316 311 309 306 299 293 290 300 3 63 321 323 2 310 304 314 307 322 314 298 38 49 9 51 19 7 188 150 312 200 133
333 352 350 343 344 349 348 348 349 347 345 334 329 331 326 319 316 313 312 308 301 327 27 95 152 25 331 306 303 320 306 329 331 332 14 31 41 44 26 45 198 276 53 304 226 266 168
341 350 346 348 345 349 348 352 349 347 344 335 336 334 332 326 316 321 345 14 17 347 39 146 280 256 282 295 295 325 331 347 5 49 23 351 53 9 258 187 132 344 325 10 265 303 239
331 350 353 352 347 350 346 350 350 347 345 340 338 336 334 329 324 335 45 70 85 236 321 292 256 268 257 274 324 322 8 38 37 2 342 17 3 295 266 253 278 164 9 292 289 323 165
315 341 1 347 356 351 351 349 350 346 345 340 340 337 335 335 330 27 61 70 318 90 31 305 268 279 279 358 308 290 38 340 38 20 356 104 280 326 108 18 13 319 198 306 264 344 39
309 333 359 354 357 355 354 348 352 350 346 340 339 337 346 331 46 316 37 324 344 110 60 309 344 328 331 300 299 286 38 98 354 343 347 281 323 23 358 27 85 340 359 348 319 57 233
294 326 352 8 355 1 359 352 352 358 354 348 341 342 1 41 158 61 299 318 31 61 43 307 301 286 315 53 302 332 330 31 274 293 66 270 344 356 347 323 5 232 5 343 2 118 38
298 332 343 8 5 1 6 355 355 359 1 354 343 350 346 30 42 265 316 350 38 45 298 330 301 349 2 346 304 310 15 23 246 350 321 249 263 197 246 288 252 317 55 42 54 70 13
280 338 355 4 8 8 4 3 355 355 354 351 343 343 35 98 239 325 20 49 34 88 1 309 323 352 348 295 322 6 357 0 18 18 359 329 330 307 296 346 14 50 50 348 359 3 227
225 336 6 9 14 9 7 4 357 351 343 332 319 348 345 116 343 19 44 52 65 213 258 324 325 319 312 3 298 324 5 359 22 68 10 29 335 348 27 261 197 43 140 158 229 221 274
192 330 16 16 19 13 7 6 356 353 341 323 317 4 7 347 27 63 73 52 199 195 254 319 321 8 321 341 328 6 352 257 248 188 75 347 278 317 272 341 63 219 193 200 99 359 16
191 163 28 26 20 15 8 7 360 353 352 4 53 41 304 325 66 73 74 228 209 198 151 139 337 52 312 303 7 19 310 256 284 189 119 268 309 295 304 348 50 177 289 81 8 231 258
185 179 79 37 24 18 13 6 5 356 351 349 40 15 280 344 69 57 161 228 231 224 161 164 233 273 248 288 260 293 279 265 211 235 148 200 145 288 334 202 196 70 302 3 127 165 222
198 193 137 48 22 16 13 6 8 1 354 41 87 334 291 12 40 39 194 197 188 196 145 239 221 211 215 273 274 265 241 224 163 182 315 158 172 273 240 178 230 204 232 167 144 249 204
205 211 236 56 359 4 8 9 8 5 14 21 76 256 314 92 219 246 265 269 217 167 203 191 233 213 184 226 269 215 262 185 167 175 214 178 268 317 342 18 350 230 216 195 144 122 227
200 211 225 56 351 5 7 5 3 2 2 88 53 333 327 53 50 160 222 242 248 202 215 179 237 163 192 249 217 276 269 260 180 211 143 132 212 203 215 246 190 249 222 202 173 151 220
194 196 209 204 251 331 3 0 359 357 4 87 48 250 198 284 293 224 194 278 230 248 221 190 227 214 185 240 248 232 228 281 192 164 126 146 246 208 257 264 258 259 256 220 198 226 214
194 206 213 208 287 298 326 350 359 353 27 83 152 82 5 278 282 179 198 234 211 230 165 228 212 204 194 209 205 241 207 181 241 135 173 160 257 314 284 272 247 263 251 233 230 243 254
204 210 211 211 217 249 275 344 353 7 47 62 325 346 108 279 275 129 226 223 232 169 239 212 202 168 194 235 230 239 212 214 215 183 194 182 192 134 256 335 313 299 242 183 206 197 175
218 211 210 217 229 251 264 272 0 64 78 124 118 98 95 268 197 214 287 234 252 231 251 312 171 170 224 146 117 294 260 251 223 230 187 165 160 172 271 341 262 243 207 209 212 241 216
209 207 218 223 234 242 251 241 245 160 144 96 159 96 121 252 218 280 252 242 289 269 242 231 222 215 144 81 15 328 321 320 226 86 217 188 154 240 240 236 289 282 202 151 166 282 182
210 220 225 241 246 255 259 265 261 263 180 115 174 126 120 112 251 314 295 226 251 259 307 245 5 54 67 109 123 210 225 228 268 189 51 102 88 165 157 214 267 246 177 153 127 291 209
218 226 232 237 246 314 325 314 298 288 229 164 218 162 114 196 259 168 221 233 221 271 245 303 346 347 45 137 197 204 235 205 223 195 180 150 167 212 226 247 277 246 169 150 134 233 176
83 78 75 71 67 58 50 48 43 39 17 175 237 182 174 228 225 201 203 216 264 181 228 262 15 267 95 189 195 225 200 224 224 203 180 174 170 197 160 208 277 160 94 172 215 228 189
74 67 62 59 54 50 44 29 22 11 7 1 259 6 275 248 258 216 223 233 232 225 153 216 239 230 231 159 245 296 233 208 210 248 163 233 204 192 189 205 260 208 204 213 170 190 216